Location: Newark
(52.3735°N, 16.9806°E)
Time: 01:41:48
(UTC+00:00)

Nauka - Pass Details

Date: 03 October 2021
Orbit: 417 x 423 km, 51.6° (Epoch: 16 October)

Event Time Altitude Azimuth Distance (km) Brightness Sun altitude
Rises 18:18:54 0° 279° (W) 2,366 ? -18.1°
Reaches altitude 10° 18:21:42 10° 253° (WSW) 1,499 ? -18.5°
Maximum altitude 18:23:36 14° 219° (SW) 1,260 ? -18.8°
Enters shadow 18:25:02 12° 191° (SSW) 1,401 ? -19.0°
